sat.trackr.live / text

‹ back to catalog

ICEYE-X34

NORAD 58294 · 2023-174AQ

PAYLOAD ACTIVE UNKNOWN

§ Identity

Operator
Country
US
Launch date
2023-11-11
Launch site
AFWTR
Launch vehicle
Mass (kg)
RCS (m²)

External: N2YO · Heavens-Above · Gunter

§ Orbital elements

Epoch: 2026-09-13T11:01:49.102176Z

Period
88.37 min
Inclination
97.3836°
Eccentricity
0.0014050
Mean motion
16.29503332 rev/d
Perigee alt
184.6 km
Apogee alt
203.1 km
Semi-major
6,572.0 km
B*
1.1133e-3
RAAN
353.9428°
Arg perigee
275.7221°
Mean anomaly
84.2470°
Rev number
15,968

§ Raw data

ICEYE-X341 58294U 23174AQ  26256.45959609  .04747814  24791-5  11133-2 0  99972 58294  97.3836 353.9428 0014050 275.7221  84.2470 16.29503332159684

JSON: /api/v1/satellites/58294 · /tle

For live sub-satellite position, see the globe view (requires WebGL).

§ Visibility from observer

Set your observer location to see the next 7 days of passes ≥ 10°. The values pass through the URL so the page stays shareable.

No JS? Fill the form by hand. The geolocation button needs JavaScript.

§ Radio — SatNOGS DB

ModeDescriptionDownlinkUplink
BPSK S-band telemetry 2.270 GHz

1 transmitter · refreshed weekly from db.satnogs.org